• In Romania
  • List of Countries
  • For 7 days
  • Water Temperature
  • Satellite Maps
  • Weather Map
  • Weather Widgets
  • user-avatar
    Login

    Hourly Weather Trujillo

    Today, 16 October, Tuesday

    Time Temperature Precipitation Wind Pressure Humidity
    00:00 +19°C° 0.3 mm 1 mps 647 mmHg 80%
    01:00 +19°C° 0 mm 1 mps 647 mmHg 78%
    02:00 +19°C° 0.2 mm 1 mps 647 mmHg 78%
    03:00 +19°C° 0.2 mm 1 mps 646 mmHg 78%
    04:00 +18°C° 0.2 mm 1 mps 646 mmHg 77%
    05:00 +19°C° 0.1 mm 1 mps 647 mmHg 75%
    06:00 +20°C° 0.1 mm 1 mps 648 mmHg 73%
    07:00 +22°C° 0 mm 1 mps 649 mmHg 67%
    08:00 +24°C° 0 mm 1 mps 649 mmHg 61%
    09:00 +26°C° 0 mm 1 mps 650 mmHg 55%
    10:00 +27°C° 0 mm 2 mps 650 mmHg 49%
    11:00 +28°C° 0 mm 2 mps 650 mmHg 48%
    12:00 +28°C° 0 mm 2 mps 649 mmHg 47%
    13:00 +29°C° 0 mm 2 mps 648 mmHg 46%
    14:00 +28°C° 0.1 mm 2 mps 648 mmHg 51%
    15:00 +27°C° 0.1 mm 2 mps 647 mmHg 56%
    16:00 +26°C° 0.1 mm 2 mps 646 mmHg 61%
    17:00 +24°C° 0.3 mm 1 mps 646 mmHg 69%
    18:00 +22°C° 0.3 mm 1 mps 646 mmHg 78%
    19:00 +20°C° 0.3 mm 1 mps 646 mmHg 86%
    20:00 +20°C° 0 mm 1 mps 646 mmHg 85%
    21:00 +20°C° 0 mm 1 mps 646 mmHg 84%
    22:00 +19°C° 0 mm 1 mps 647 mmHg 83%
    23:00 +19°C° 0 mm 1 mps 646 mmHg 80%

    Tomorrow, 17 October, Wednesday

    Time Temperature Precipitation Wind Pressure Humidity
    00:00 +19°C° 0 mm 1 mps 646 mmHg 78%
    01:00 +19°C° 0 mm 1 mps 646 mmHg 76%
    02:00 +19°C° 0 mm 1 mps 646 mmHg 74%
    03:00 +19°C° 0 mm 1 mps 646 mmHg 72%
    04:00 +18°C° 0 mm 1 mps 646 mmHg 70%
    05:00 +19°C° 0 mm 1 mps 646 mmHg 68%
    06:00 +20°C° 0 mm 1 mps 647 mmHg 65%
    07:00 +21°C° 0 mm 1 mps 647 mmHg 62%
    08:00 +23°C° 0 mm 1 mps 648 mmHg 57%
    09:00 +25°C° 0 mm 1 mps 649 mmHg 53%
    10:00 +27°C° 0 mm 2 mps 650 mmHg 48%
    11:00 +27°C° 0 mm 2 mps 649 mmHg 49%
    12:00 +27°C° 0 mm 2 mps 648 mmHg 50%
    13:00 +28°C° 0 mm 2 mps 648 mmHg 52%
    14:00 +27°C° 0.1 mm 2 mps 647 mmHg 58%
    15:00 +26°C° 0.1 mm 1 mps 646 mmHg 63%
    16:00 +25°C° 0.1 mm 1 mps 646 mmHg 69%
    17:00 +23°C° 0.3 mm 1 mps 646 mmHg 75%
    18:00 +22°C° 0.3 mm 1 mps 646 mmHg 81%
    19:00 +21°C° 0.3 mm 1 mps 646 mmHg 86%
    20:00 +20°C° 0.4 mm 1 mps 646 mmHg 86%
    21:00 +20°C° 0.4 mm 1 mps 647 mmHg 86%
    22:00 +20°C° 0.4 mm 1 mps 647 mmHg 86%
    23:00 +20°C° 0.3 mm 1 mps 646 mmHg 86%

    Day after tomorrow, 18 October, Thursday

    Time Temperature Precipitation Wind Pressure Humidity
    00:00 +20°C° 0.3 mm 1 mps 646 mmHg 86%
    01:00 +19°C° 0.3 mm 1 mps 645 mmHg 85%
    02:00 +19°C° 0.2 mm 1 mps 645 mmHg 85%
    03:00 +19°C° 0.2 mm 1 mps 645 mmHg 85%
    04:00 +19°C° 0.2 mm 1 mps 645 mmHg 84%
    05:00 +20°C° 0.1 mm 1 mps 646 mmHg 80%
    06:00 +21°C° 0.1 mm 1 mps 647 mmHg 77%
    07:00 +19°C° 0.1 mm 0 mps 647 mmHg 73%
    08:00 +23°C° 0.1 mm 1 mps 648 mmHg 69%
    09:00 +24°C° 0.1 mm 1 mps 649 mmHg 65%
    10:00 +26°C° 0.1 mm 1 mps 649 mmHg 61%
    11:00 +26°C° 0.3 mm 1 mps 648 mmHg 62%
    12:00 +26°C° 0.3 mm 1 mps 648 mmHg 63%
    13:00 +26°C° 0.3 mm 1 mps 647 mmHg 65%
    14:00 +25°C° 0.6 mm 1 mps 647 mmHg 68%
    15:00 +25°C° 0.6 mm 1 mps 646 mmHg 71%
    16:00 +24°C° 0.6 mm 1 mps 646 mmHg 75%
    17:00 +23°C° 1.3 mm 1 mps 646 mmHg 80%
    18:00 +22°C° 1.3 mm 1 mps 646 mmHg 85%
    19:00 +19°C° 1.3 mm 0 mps 646 mmHg 90%
    20:00 +20°C° 1.9 mm 1 mps 646 mmHg 90%
    21:00 +20°C° 1.9 mm 1 mps 646 mmHg 89%
    22:00 +20°C° 1.9 mm 1 mps 647 mmHg 88%
    23:00 +20°C° 2.9 mm 1 mps 647 mmHg 88%

    19 October, Friday

    Time Temperature Precipitation Wind Pressure Humidity
    00:00 +20°C° 2.9 mm 1 mps 646 mmHg 88%
    01:00 +20°C° 2.9 mm 1 mps 646 mmHg 88%
    02:00 +20°C° 1.5 mm 1 mps 646 mmHg 88%
    03:00 +19°C° 1.5 mm 1 mps 646 mmHg 87%
    04:00 +19°C° 1.5 mm 1 mps 645 mmHg 87%
    05:00 +18°C° 0.7 mm 0 mps 646 mmHg 84%
    06:00 +19°C° 0.7 mm 0 mps 647 mmHg 82%
    07:00 +19°C° 0.7 mm 0 mps 647 mmHg 80%
    08:00 +23°C° 0.4 mm 1 mps 648 mmHg 74%
    09:00 +24°C° 0.4 mm 1 mps 648 mmHg 68%
    10:00 +26°C° 0.4 mm 1 mps 649 mmHg 63%
    11:00 +26°C° 0.5 mm 2 mps 648 mmHg 65%
    12:00 +25°C° 0.5 mm 2 mps 647 mmHg 66%
    13:00 +25°C° 0.5 mm 2 mps 647 mmHg 68%
    14:00 +25°C° 1.2 mm 1 mps 646 mmHg 72%
    15:00 +24°C° 1.2 mm 1 mps 646 mmHg 75%
    16:00 +23°C° 1.2 mm 1 mps 645 mmHg 79%
    17:00 +22°C° 3.2 mm 1 mps 645 mmHg 84%
    18:00 +21°C° 3.2 mm 1 mps 645 mmHg 88%
    19:00 +18°C° 3.2 mm 0 mps 646 mmHg 92%
    20:00 +18°C° 2.8 mm 0 mps 646 mmHg 92%
    21:00 +20°C° 2.8 mm 1 mps 646 mmHg 92%
    22:00 +20°C° 2.8 mm 1 mps 646 mmHg 92%
    23:00 +20°C° 1.5 mm 1 mps 646 mmHg 91%

    20 October, Saturday

    Time Temperature Precipitation Wind Pressure Humidity
    00:00 +19°C° 1.5 mm 1 mps 646 mmHg 91%
    01:00 +19°C° 1.5 mm 1 mps 645 mmHg 90%
    02:00 +19°C° 0.8 mm 1 mps 645 mmHg 90%
    03:00 +19°C° 0.8 mm 1 mps 645 mmHg 90%
    04:00 +19°C° 0.8 mm 1 mps 645 mmHg 89%
    05:00 +19°C° 0.6 mm 1 mps 645 mmHg 87%
    06:00 +18°C° 0.6 mm 0 mps 646 mmHg 85%
    07:00 +18°C° 0.6 mm 0 mps 647 mmHg 83%
    08:00 +22°C° 0.4 mm 1 mps 647 mmHg 77%
    09:00 +23°C° 0.4 mm 1 mps 648 mmHg 72%
    10:00 +24°C° 0.4 mm 1 mps 648 mmHg 66%
    11:00 +24°C° 0.8 mm 1 mps 648 mmHg 67%
    12:00 +24°C° 0.8 mm 1 mps 647 mmHg 68%
    13:00 +24°C° 0.8 mm 1 mps 646 mmHg 69%
    14:00 +24°C° 1.5 mm 1 mps 646 mmHg 72%
    15:00 +23°C° 1.5 mm 1 mps 645 mmHg 75%
    16:00 +21°C° 1.5 mm 0 mps 645 mmHg 78%
    17:00 +20°C° 1.4 mm 0 mps 645 mmHg 82%
    18:00 +19°C° 1.4 mm 0 mps 645 mmHg 85%
    19:00 +20°C° 1.4 mm 1 mps 645 mmHg 89%
    20:00 +20°C° 1.1 mm 1 mps 646 mmHg 89%
    21:00 +20°C° 1.1 mm 1 mps 646 mmHg 89%
    22:00 +19°C° 1.1 mm 1 mps 646 mmHg 89%
    23:00 +19°C° 0.8 mm 1 mps 646 mmHg 88%

    21 October, Sunday

    Time Temperature Precipitation Wind Pressure Humidity
    00:00 +19°C° 0.8 mm 1 mps 645 mmHg 88%
    01:00 +19°C° 0.8 mm 1 mps 645 mmHg 87%
    02:00 +19°C° 0.8 mm 1 mps 645 mmHg 87%
    03:00 +19°C° 0.8 mm 1 mps 645 mmHg 87%
    04:00 +19°C° 0.8 mm 1 mps 645 mmHg 87%
    05:00 +19°C° 0.5 mm 1 mps 646 mmHg 85%
    06:00 +18°C° 0.5 mm 0 mps 646 mmHg 83%
    07:00 +18°C° 0.5 mm 0 mps 647 mmHg 81%
    08:00 +22°C° 0.3 mm 1 mps 647 mmHg 76%
    09:00 +23°C° 0.3 mm 1 mps 648 mmHg 71%
    10:00 +24°C° 0.3 mm 1 mps 648 mmHg 66%
    11:00 +24°C° 0.5 mm 1 mps 648 mmHg 67%
    12:00 +25°C° 0.5 mm 1 mps 647 mmHg 67%
    13:00 +25°C° 0.5 mm 1 mps 646 mmHg 67%
    14:00 +24°C° 0.8 mm 1 mps 646 mmHg 70%
    15:00 +24°C° 0.8 mm 1 mps 645 mmHg 73%
    16:00 +23°C° 0.8 mm 1 mps 645 mmHg 76%
    17:00 +22°C° 1.1 mm 1 mps 645 mmHg 80%
    18:00 +21°C° 1.1 mm 1 mps 646 mmHg 84%
    19:00 +18°C° 1.1 mm 0 mps 646 mmHg 89%
    20:00 +18°C° 0.9 mm 0 mps 646 mmHg 89%
    21:00 +20°C° 0.9 mm 1 mps 646 mmHg 89%
    22:00 +19°C° 0.9 mm 1 mps 646 mmHg 89%
    23:00 +19°C° 1 mm 1 mps 646 mmHg 89%
    Show more